Volver al catálogo

INTELSAT 33E DEB

ActivoGEO
NORAD 61996·DEBRIS· XX

Lanzado Aug 24, 2016 desde Guiana Space Centre

Loading…

TLE

ActualizadoSource: Space-Track

Época: Sep 13, 2026, 17:38 UTC

1 61996U 16053N   26256.73481890  .00000038  00000-0  00000-0 0  9998
2 61996   1.6411  68.6108 0043388 344.5750  16.1217  1.00593078  6994

Sigue INTELSAT 33E DEB en tiempo real con AllMySat

Download on the App Store